Dewpoint
45 46 46 46 45 44 45 46 46 45 43 42 42 41 41 41 41 41 42 44 44 44 42 44 45 45 42 37 36 43 44 43 43 45 44 45 40 40 42 41 43 38 37 27 26 24 22
47 46 46 46 45 45 44 45 45 43 42 43 43 42 42 42 42 41 43 43 41 42 43 45 46 45 41 32 44 45 44 42 42 41 40 44 41 42 41 42 41 37 37 27 25 22 34
47 47 46 46 46 45 44 45 44 43 43 43 43 43 42 43 43 43 43 43 43 44 43 45 47 44 38 37 45 46 44 42 42 42 39 43 45 39 42 42 40 33 32 25 24 22 35
47 47 48 47 46 45 44 45 44 44 44 43 43 43 42 43 43 43 43 42 41 42 41 45 46 42 35 44 44 42 42 42 44 42 43 45 45 41 40 42 38 31 26 22 23 22 33
47 47 47 46 46 45 44 45 44 44 44 44 43 42 43 43 42 40 40 40 42 42 42 45 42 38 33 46 39 42 42 40 42 42 43 45 41 37 37 39 35 33 25 20 21 23 35
47 47 46 47 47 46 45 44 44 44 44 44 42 42 43 41 42 38 39 40 37 36 37 41 35 27 33 32 37 42 42 42 40 40 41 40 35 32 34 37 29 32 23 20 19 22 31
47 47 47 47 47 46 45 45 44 44 44 43 42 43 43 40 39 39 34 27 24 24 29 28 30 30 33 36 40 41 42 40 39 39 32 36 31 29 33 35 36 27 22 18 22 26 33
47 47 47 47 47 46 46 45 44 44 45 44 42 41 40 39 38 38 36 33 35 34 26 34 35 34 35 37 33 39 40 35 35 32 35 33 30 33 35 36 33 22 19 21 23 27 35
47 47 47 47 46 46 45 45 44 44 45 45 43 38 39 40 37 33 32 33 36 39 28 32 35 34 35 37 33 35 38 36 33 33 31 30 33 36 36 30 28 18 18 21 21 32 36
47 47 47 47 46 46 45 45 44 44 45 45 43 36 37 40 30 31 30 33 36 35 16 27 31 34 36 36 32 38 39 37 36 31 34 35 38 37 34 27 24 17 21 22 23 24 24
47 47 47 47 46 46 45 45 44 44 45 45 40 33 36 33 29 31 32 34 36 26 17 27 29 37 35 32 35 36 40 38 33 33 33 33 36 36 27 23 22 17 23 20 18 19 23
47 47 47 46 46 46 46 44 44 44 44 45 39 32 32 30 30 32 34 35 25 17 18 23 30 28 30 34 34 35 38 41 38 34 35 35 35 25 21 21 18 23 19 20 22 20 15
46 46 46 46 46 46 45 44 43 43 44 44 40 30 27 29 23 31 33 23 17 15 20 22 22 25 26 28 31 32 31 31 30 28 29 28 25 26 22 20 22 21 17 16 16 14 13
46 46 46 46 46 46 46 45 43 43 42 43 35 28 27 25 30 35 24 18 16 16 17 20 20 21 23 24 27 28 28 28 31 29 25 25 22 27 27 20 19 18 18 17 17 15 12
46 46 46 47 46 46 46 45 43 42 40 39 40 20 16 23 29 28 20 13 14 16 18 18 19 21 21 20 23 24 27 26 30 31 24 22 23 29 24 24 20 17 16 19 11 10 11
45 45 45 46 46 47 46 45 44 43 38 31 14 7 11 25 27 22 16 15 17 17 17 19 17 17 19 19 22 22 24 27 27 31 32 28 22 28 25 22 19 17 17 14 14 9 9
44 44 45 45 47 47 46 45 43 42 36 29 5 -8 9 25 22 18 11 13 16 16 16 18 18 17 17 18 18 21 23 25 24 29 32 31 22 23 22 21 16 15 14 16 15 15 9
43 44 44 44 46 46 45 45 43 41 34 19 7 -10 16 20 7 16 12 18 17 15 15 15 17 19 18 18 19 22 23 23 23 28 29 31 25 20 22 26 28 22 16 14 12 11 14
43 43 43 44 45 46 45 44 43 40 32 15 2 3 15 15 -8 7 15 15 16 14 14 13 15 18 18 17 20 20 21 21 23 28 29 30 25 17 17 20 24 23 22 17 18 17 11
42 43 43 43 44 45 44 44 43 39 35 18 8 -1 7 14 16 7 4 8 7 16 13 13 13 15 15 15 17 19 19 20 22 26 29 32 30 21 12 16 23 20 22 19 15 12 13
42 42 42 43 43 44 43 43 42 38 35 19 17 9 13 -5 4 10 10 12 6 7 15 14 14 13 14 13 16 17 18 20 22 24 24 28 27 28 31 31 28 24 22 19 17 16 11
42 42 42 42 42 43 43 42 40 36 33 25 11 10 16 16 11 5 7 7 10 12 16 9 11 11 13 18 17 19 17 20 21 22 22 22 27 27 27 30 29 26 25 22 19 18 16
42 42 41 42 42 42 43 42 40 34 30 23 28 25 14 15 5 -2 2 7 11 18 10 18 15 8 14 13 11 12 12 14 17 20 23 22 25 26 24 28 27 23 25 25 23 22 20
43 42 41 41 42 42 42 42 41 35 31 27 29 22 10 4 9 3 13 17 15 17 8 17 12 6 9 14 16 16 15 16 17 22 23 22 23 25 25 27 21 22 19 20 23 21 19
43 43 42 41 41 41 41 42 41 38 31 27 29 21 12 7 13 15 16 17 18 13 19 18 18 14 16 21 19 17 16 15 18 20 23 24 20 23 23 23 22 21 22 21 22 22 22
44 43 43 42 41 41 41 41 41 40 33 25 27 28 18 13 11 12 12 17 -0 -3 5 11 18 16 21 20 18 5 -4 7 9 14 21 23 20 19 20 19 17 19 20 20 22 21 18
45 43 43 43 42 41 41 41 41 40 35 27 26 29 18 15 16 19 10 3 12 6 -2 5 10 8 17 18 14 9 5 12 7 9 14 15 15 18 19 18 18 19 19 21 19 18 14
45 45 44 43 43 41 41 41 41 40 37 30 28 28 19 16 18 23 20 13 15 10 9 6 7 9 12 15 13 10 12 13 11 10 12 11 11 13 16 17 12 19 21 22 21 12 12
45 46 45 44 44 43 41 41 41 41 39 31 26 30 27 17 19 27 25 23 19 16 5 8 7 4 9 8 8 11 10 10 9 -3 8 7 11 13 16 16 18 19 19 19 13 13 10
Wind_Speed
22 23 23 24 23 23 23 23 24 24 23 23 22 20 18 18 17 17 16 16 15 13 10 6 8 8 6 5 2 5 5 8 6 4 9 10 13 5 16 34 19 16 12 6 2 10 10
24 24 25 25 24 24 24 23 23 23 23 22 21 19 18 17 16 15 14 13 10 9 7 3 14 6 1 7 2 6 2 5 8 7 3 6 7 9 12 25 17 14 16 5 3 12 10
25 25 26 26 26 25 25 25 25 24 22 21 19 18 18 17 16 16 15 12 11 10 3 2 15 3 4 4 2 8 3 4 4 2 1 4 11 8 10 21 8 22 19 5 3 11 10
26 26 27 27 28 27 26 26 25 24 22 20 19 18 18 18 18 17 15 13 10 4 4 6 13 2 4 0 9 7 2 3 2 1 2 2 13 11 10 8 10 14 17 15 4 9 5
26 27 27 28 29 28 27 26 25 24 22 20 18 18 18 18 17 16 16 12 2 5 6 9 4 2 3 5 2 2 2 1 3 2 0 8 9 3 12 24 19 10 31 17 8 3 9
27 27 28 29 29 28 27 27 26 24 22 20 18 18 17 17 12 17 11 4 7 5 5 2 4 2 3 5 5 5 0 4 2 3 2 6 5 4 7 23 23 20 26 17 19 10 6
27 28 29 30 30 29 28 27 26 23 21 21 19 18 17 15 11 14 5 4 4 3 12 6 6 4 2 9 2 6 3 2 2 4 4 7 6 17 6 24 18 37 28 18 7 3 11
27 28 30 30 31 30 30 28 26 23 20 20 20 20 15 10 11 9 7 8 5 3 3 12 7 4 7 6 1 2 2 2 1 2 16 6 3 3 6 9 26 6 29 15 7 5 9
27 29 30 31 32 31 30 29 27 23 20 19 19 20 13 5 8 11 15 5 4 4 3 4 2 3 4 5 1 4 5 4 2 10 11 11 6 10 13 20 27 9 29 13 20 9 11
28 29 31 32 32 32 31 30 27 23 18 17 16 17 13 3 6 1 5 5 4 1 1 14 8 3 2 3 1 5 6 1 3 14 12 8 11 12 13 20 28 16 13 15 17 14 15
29 30 31 32 33 33 33 31 28 22 17 14 13 17 10 11 6 3 1 4 1 1 9 28 10 6 15 3 2 2 4 1 7 14 6 3 9 14 22 13 12 8 14 14 8 12 11
29 30 31 32 33 33 33 32 29 23 16 10 8 14 10 7 3 2 4 2 2 3 13 16 11 12 10 11 4 5 6 5 2 24 25 7 3 4 4 9 5 17 16 10 7 5 13
28 30 31 33 33 32 33 33 30 24 16 6 2 11 10 4 5 11 2 2 5 11 11 16 9 18 14 15 14 8 16 15 6 13 17 17 6 4 6 14 5 10 23 9 4 3 8
28 30 32 33 34 34 33 34 32 26 17 4 6 3 7 8 9 2 2 8 17 2 5 9 7 14 10 16 13 20 10 15 22 14 11 9 16 4 5 7 12 16 10 13 11 13 12
28 30 32 33 34 35 35 35 36 30 19 3 7 2 6 14 9 2 7 18 3 3 7 10 15 7 11 8 6 8 13 9 12 14 6 7 5 5 4 3 5 10 11 13 10 3 3
26 29 32 33 36 37 36 36 37 33 23 3 4 3 9 19 8 7 17 7 1 3 4 2 6 7 10 14 8 9 11 6 8 6 10 4 10 4 3 1 9 5 11 12 6 12 8
23 26 30 33 35 36 37 37 37 36 25 1 5 4 10 17 7 18 12 4 1 3 5 2 2 4 5 7 6 5 5 6 10 11 9 7 3 3 1 3 5 6 6 4 8 5 13
20 23 26 30 32 35 37 37 37 36 27 10 4 8 15 9 11 7 6 3 4 7 5 5 3 4 4 4 5 4 4 5 14 8 5 7 4 5 3 1 2 2 5 5 14 11 3
17 19 23 26 29 32 35 39 38 36 20 3 5 4 8 7 8 7 3 3 5 8 6 4 4 4 3 4 4 3 3 2 10 6 4 7 2 8 0 1 0 2 1 3 6 4 11
14 17 18 22 25 29 33 36 39 37 20 6 4 6 9 11 5 5 3 4 2 4 3 3 4 2 2 5 7 3 3 3 5 9 7 1 2 4 17 5 2 7 8 5 2 9 7
13 14 16 18 21 24 29 33 37 38 22 6 10 4 1 8 10 9 3 2 5 6 5 6 3 8 1 3 3 4 4 4 3 12 4 3 3 1 3 1 3 4 8 14 15 9 10
12 13 14 15 18 21 25 29 32 36 16 10 5 2 3 3 0 2 5 3 4 2 4 5 6 6 5 5 3 2 1 4 2 7 5 6 1 2 2 1 5 5 10 11 11 9 14
12 11 11 12 13 15 19 22 26 29 13 7 2 3 3 4 2 2 1 2 2 1 1 2 1 1 4 2 2 5 4 4 2 3 4 2 4 3 5 6 6 11 17 17 10 8 9
14 12 11 10 9 11 13 16 19 20 12 5 2 2 3 1 2 2 2 3 4 3 2 2 1 1 2 2 2 1 3 5 4 4 4 0 3 2 4 4 12 7 2 2 14 11 11
17 14 12 10 7 7 8 10 13 14 10 7 3 2 2 0 1 1 3 4 3 2 4 3 3 2 5 2 1 1 2 0 1 2 4 4 2 4 6 9 8 6 8 9 9 13 19
19 17 16 13 10 7 5 4 6 8 5 5 4 1 2 2 3 4 3 4 2 3 2 4 1 3 1 2 1 4 5 2 4 3 5 5 4 2 4 5 8 6 4 4 4 17 1
22 20 18 17 14 10 8 6 2 3 5 4 3 1 2 1 5 6 5 4 6 1 2 2 1 2 3 1 3 6 5 2 4 6 7 5 2 9 8 8 11 3 12 8 7 6 4
23 23 21 20 18 14 12 10 7 4 5 3 2 1 0 2 4 9 9 6 5 4 2 4 1 0 2 3 4 4 5 6 3 3 5 11 12 8 5 6 12 12 7 10 3 2 5
27 26 24 22 20 19 16 14 11 8 7 5 2 1 1 3 2 3 6 5 5 9 8 5 2 4 5 3 4 3 4 4 4 4 2 7 8 4 14 9 2 15 4 4 6 6 8
Wind_Direction
1 358 357 355 352 351 349 347 342 341 341 337 335 339 333 330 327 324 326 317 316 319 320 356 140 72 40 68 129 239 350 20 29 99 205 182 190 164 201 178 165 170 168 185 143 163 169
359 359 359 355 352 351 350 350 342 342 344 338 338 340 338 331 329 324 319 311 316 315 317 59 167 127 111 74 103 176 50 352 38 9 45 211 180 191 285 169 166 140 158 161 103 150 158
2 0 359 356 354 354 353 349 345 347 343 337 339 341 339 335 335 334 326 319 318 320 335 71 171 155 72 79 103 142 74 18 36 15 261 209 128 162 337 162 145 137 154 131 127 161 165
1 1 359 357 356 356 355 352 346 346 344 337 340 340 340 342 343 337 332 326 325 2 129 127 157 94 85 67 135 134 117 6 350 111 308 57 118 157 262 119 123 142 146 159 183 162 152
2 1 0 358 358 358 357 353 350 349 347 340 343 346 347 345 347 351 339 336 22 66 143 122 90 357 72 136 295 133 152 72 332 78 6 112 96 103 333 153 156 205 158 164 154 196 147
1 359 359 358 359 359 358 356 352 352 350 341 344 349 351 348 1 353 360 48 42 69 55 78 79 58 46 343 327 106 264 132 275 144 148 114 80 95 269 158 172 154 152 161 161 183 127
360 358 358 358 359 0 359 358 354 353 352 345 350 348 347 357 14 5 55 70 22 45 40 38 33 308 19 325 222 84 13 80 315 185 142 112 117 207 150 184 145 156 155 147 97 108 119
360 358 357 358 359 1 0 359 357 354 352 348 352 349 350 13 47 48 63 88 156 157 122 33 18 132 7 350 294 77 268 109 79 168 118 99 109 174 349 239 144 164 146 128 92 101 107
360 359 358 358 360 1 1 0 359 356 353 348 349 354 0 50 100 45 81 92 289 173 97 334 322 333 328 321 46 183 206 122 111 117 83 83 111 123 238 152 149 154 161 149 142 103 64
360 359 358 359 360 0 2 2 0 360 357 351 354 360 0 87 72 104 76 327 328 238 3 352 356 95 305 263 93 190 196 118 182 143 109 65 149 170 169 151 157 152 133 123 131 139 155
359 359 359 360 360 0 1 1 2 3 1 358 3 5 16 43 123 93 133 317 301 144 24 332 329 306 312 230 136 213 160 70 155 145 134 71 135 163 156 161 153 141 138 135 117 114 129
358 358 358 0 1 1 1 1 2 6 6 7 9 15 21 23 31 65 312 158 90 53 20 345 323 346 16 13 83 119 208 241 225 87 80 107 188 94 96 74 102 137 124 95 71 100 185
357 357 358 359 1 2 2 2 3 5 9 15 36 40 39 28 327 325 300 97 57 55 333 344 337 339 350 26 34 68 63 58 97 104 103 90 52 82 96 109 111 142 139 138 142 218 192
356 358 357 357 360 2 2 2 4 3 8 25 146 61 43 40 326 273 38 56 64 312 322 318 317 329 40 13 40 41 61 58 22 51 97 106 122 18 1 134 160 158 163 152 157 178 191
355 356 357 355 358 1 3 3 2 1 360 67 147 16 24 344 350 23 56 54 109 283 303 319 316 27 21 15 32 49 35 36 20 9 86 114 65 325 71 116 144 171 183 147 108 52 147
356 356 356 355 357 358 0 4 2 358 358 45 115 66 12 337 8 64 68 94 198 301 309 302 53 26 20 359 38 34 28 10 340 359 333 81 105 5 348 73 55 167 149 152 137 155 182
356 357 357 356 356 357 358 2 4 358 360 26 61 47 343 352 46 51 78 73 334 319 346 51 90 34 27 1 39 58 15 6 358 334 353 5 88 122 77 15 156 139 182 91 124 156 189
356 358 357 357 356 356 355 359 4 4 358 43 57 46 349 7 48 47 65 93 1 346 359 15 45 88 93 40 53 55 62 355 347 330 29 11 69 93 117 161 349 340 174 153 191 200 169
353 356 358 358 358 357 357 357 1 7 19 47 56 357 346 38 67 58 77 59 48 25 10 21 36 15 23 44 69 64 96 356 5 33 30 339 59 130 20 310 119 183 242 122 110 120 201
347 352 359 359 359 1 360 358 358 5 13 76 72 18 13 53 54 88 85 23 31 24 40 5 23 43 7 68 44 106 61 0 348 8 343 325 64 177 193 191 181 184 178 180 127 212 197
336 346 353 359 1 3 4 3 358 1 8 82 27 72 337 5 31 81 94 60 12 5 7 21 24 46 36 80 58 78 10 336 18 360 18 64 182 289 233 216 208 200 206 192 205 191 212
321 332 344 355 0 5 7 7 5 359 6 69 77 104 63 101 70 64 35 42 42 345 347 18 66 353 43 93 108 157 357 23 359 340 35 1 278 330 244 6 7 264 236 222 227 217 231
299 311 325 340 355 3 8 11 13 7 24 73 47 104 101 352 18 54 7 151 95 131 203 273 302 61 41 58 203 214 210 272 262 344 360 24 149 141 264 344 333 270 232 214 210 197 201
281 289 300 317 339 354 7 13 18 21 47 98 110 108 75 357 21 43 182 206 188 187 191 268 222 268 152 271 262 266 226 217 238 263 221 73 142 155 198 154 225 264 9 234 223 239 225
271 274 279 287 302 326 351 10 20 29 33 81 117 83 92 22 167 245 227 226 256 264 220 240 209 208 329 339 110 332 303 88 206 172 179 194 167 166 206 217 299 270 228 200 202 266 218
263 265 268 268 269 275 296 339 18 38 59 89 77 120 114 128 245 165 175 197 249 212 231 234 281 339 349 60 96 205 222 221 205 166 70 150 80 169 163 222 233 250 152 124 123 261 275
258 256 253 257 254 249 253 261 260 61 72 110 104 173 123 210 202 167 196 190 147 147 244 257 219 130 42 156 232 219 232 170 232 198 174 164 174 208 201 237 277 275 152 145 190 262 159
247 251 252 249 247 241 236 239 238 197 131 122 120 125 268 238 219 197 184 158 147 173 247 180 117 71 112 204 217 228 211 211 215 214 195 186 176 193 162 209 268 157 133 190 173 132 182
236 234 237 239 239 237 230 228 224 217 167 137 171 174 151 189 258 209 223 212 194 177 152 179 191 180 194 142 210 161 218 185 210 250 205 231 206 206 202 221 195 198 209 199 175 156 182